[[{"header":{"parameterUnit":"m.s-1","parameterCategory":1,"la1":30.2991,"la2":30.254,"lo1":-89.0895,"lo2":-89.0444,"dy":0.0017,"dx":0.0017,"nx":28,"ny":28,"refTime":"2025-04-13T09:00:00:Z","depth":0,"parameterNumber":2,"parameterNumberName":"U-component_of_WINDS"},"data":[0,0,0,0,0,0,0,0,0,0,0,0,0,0,0,0,0,0,0,0,0,0,0,0,0,0,0,0,0,0,0,0,0,0,0,0,0,0,0,0,0,0,0,0,0,0,0,0,0,0,0,0,0,0,0,0,0,0,-3.3619,-3.3619,0,-3.3655,-3.3656,-3.3656,-3.3606,-3.3605,-3.3603,-3.3601,-3.3637,-3.364,-3.3642,0,0,0,0,0,0,0,0,0,0,0,0,0,-3.3506,-3.3508,-3.3619,-3.3619,-3.362,-3.3655,-3.3656,-3.3656,-3.3607,-3.3604,-3.3602,-3.36,-3.3636,-3.364,-3.3643,0,0,0,0,0,0,0,0,0,0,0,0,0,-3.355,-3.3509,-3.3619,-3.3599,-3.3598,-3.3655,-3.3656,-3.3656,-3.3607,-3.3604,-3.3602,-3.3599,-3.3635,-3.3639,-3.3643,-3.3721,0,0,-3.3655,-3.3657,0,0,0,0,0,0,0,0,-3.3548,-3.3554,-3.3602,-3.3601,-3.3599,-3.3624,-3.3629,-3.3678,-3.3608,-3.3604,-3.3601,-3.3598,-3.3635,-3.3639,-3.3651,-3.3723,-3.3724,-3.3656,-3.3658,-3.366,-3.3661,0,0,0,0,0,0,0,-3.3545,-3.3552,-3.3633,-3.3602,-3.3601,-3.3589,-3.3592,-3.3638,-3.3634,-3.3604,-3.36,-3.3605,-3.3634,-3.3648,-3.3652,-3.3725,-3.3655,-3.3659,-3.3661,-3.3663,-3.3863,-3.3866,0,0,0,0,0,0,-3.3544,-3.355,-3.3632,-3.3634,-3.3566,-3.3593,-3.3597,-3.3618,-3.3633,-3.3633,-3.3608,-3.3603,-3.3642,-3.3647,-3.3653,-3.3744,-3.366,-3.3663,-3.3666,-3.386,-3.3863,-3.3867,0,0,0,0,0,0,-3.3542,-3.3552,-3.363,-3.3591,-3.36,-3.3598,-3.3623,-3.3621,-3.3634,-3.3636,-3.3635,-3.3623,-3.364,-3.3647,-3.3705,-3.3745,-3.3665,-3.3669,-3.3856,-3.3861,-3.3865,-3.3928,0,0,0,0,0,0,-3.3539,-3.3551,-3.358,-3.3592,-3.3603,-3.3681,-3.3625,-3.3623,-3.3642,-3.3636,-3.365,-3.365,-3.3639,-3.3699,-3.3709,-3.3749,-3.3672,-3.3853,-3.3858,-3.3864,-3.3922,-3.3934,-3.3944,0,0,0,0,0,-3.3535,-3.3596,-3.3582,-3.3592,-3.3639,-3.3684,-3.369,-3.3676,-3.3645,-3.3674,-3.3676,-3.3649,-3.374,-3.3705,-3.3716,-3.3758,-3.385,-3.3857,-3.3863,-3.3918,-3.3932,-3.3944,0,0,0,0,0,0,-3.3588,-3.3597,-3.3581,-3.3649,-3.3666,-3.3675,-3.3711,-3.3692,-3.3718,-3.3711,-3.3694,-3.3698,-3.3759,-3.3765,-3.3726,-3.3834,-3.379,-3.3799,-3.3828,-3.3841,-3.3852,-3.3848,-3.3675,0,0,0,0,0,-3.3608,-3.3643,-3.365,-3.3709,-3.3718,-3.3714,-3.3733,-3.3722,-3.3738,-3.3745,-3.3751,-3.3768,-3.38,-3.3822,-3.3852,-3.3925,-3.3927,-3.3959,-3.397,-3.3979,-3.3986,-3.4025,-3.4039,-3.3888,-3.3888,-3.3888,0,0,-3.3648,-3.3658,-3.3681,-3.372,-3.3731,-3.3769,-3.372,-3.3761,-3.3788,-3.3751,-3.3805,-3.3811,-3.3829,-3.3894,-3.3923,-3.3901,-3.4029,-3.3987,-3.3995,-3.3996,-3.4033,-3.4047,-3.406,-3.3893,-3.3892,-3.3891,0,0,-3.374,-3.3752,-3.3802,-3.3815,-3.3835,-3.3832,-3.3845,-3.3858,-3.386,-3.3914,-3.3887,-3.392,-3.3977,-3.3991,-3.4005,-3.4107,-3.4083,-3.4118,-3.4173,-3.4211,-3.4223,-3.4234,-3.4268,-3.4281,-3.4125,-3.4125,-3.4125,0,-3.3787,-3.3842,-3.383,-3.3873,-3.3891,-3.3861,-3.3911,-3.3926,-3.3954,-3.3966,-3.3942,-3.4013,-3.4023,-3.4091,-3.4116,-3.413,-3.4143,-3.4114,-3.4223,-3.4233,-3.4242,-3.4275,-3.4289,-3.4129,-3.4129,-3.4128,-3.4128,0,-3.3899,-3.3938,-3.3976,-3.4005,-3.4027,-3.4074,-3.4069,-3.4094,-3.4082,-3.4082,-3.4139,-3.4151,-3.4182,-3.4199,-3.4187,-3.4266,-3.4251,-3.4226,-3.4179,-3.4261,-3.4291,-3.4304,-3.4135,-3.4133,-3.4132,-3.4131,0,0,-3.4021,-3.4045,-3.4058,-3.4071,-3.4092,-3.4122,-3.4169,-3.4201,-3.4222,-3.4244,-3.4281,-3.4332,-3.4308,-3.4325,-3.4315,-3.435,-3.4428,-3.4319,-3.4319,-3.4337,-3.4515,-3.4532,-3.4547,-3.4414,-3.4417,-3.4419,-3.4513,0,-3.4111,-3.4191,-3.4183,-3.4258,-3.4294,-3.4268,-3.4309,-3.4326,-3.4329,-3.436,-3.4363,-3.4398,-3.4365,-3.4375,-3.4408,-3.4411,-3.4463,-3.4405,-3.4448,-3.445,-3.4441,-3.4563,-3.4581,-3.4669,-3.4525,-3.4527,-3.4528,0,-3.4226,-3.4253,-3.4332,-3.4349,-3.4364,-3.44,-3.4429,-3.446,-3.448,-3.448,-3.45,-3.4486,-3.4533,-3.4489,-3.4554,-3.4514,-3.4532,-3.4537,-3.454,-3.4541,-3.4491,-3.4564,-3.4696,-3.4709,-3.4547,-3.4546,-3.4544,0,-3.4304,-3.4361,-3.4415,-3.4428,-3.4449,-3.4475,-3.4486,-3.4503,-3.4524,-3.455,-3.4563,-3.4595,-3.4612,-3.4637,-3.4632,-3.4601,-3.4698,-3.4653,-3.4697,-3.4697,-3.4715,-3.4714,-3.4849,-3.4733,-3.4732,-3.4732,-3.4732,0,-3.4404,-3.4453,-3.4451,-3.4484,-3.4539,-3.4531,-3.4585,-3.4592,-3.4609,-3.4643,-3.4624,-3.4657,-3.4649,-3.4682,-3.4679,-3.4732,-3.4741,-3.4741,-3.4739,-3.4741,-3.4741,-3.475,-3.4742,-3.4736,-3.4735,-3.4734,-3.4734,0,-3.4498,-3.4499,-3.4557,-3.4574,-3.458,-3.4619,-3.4633,-3.4665,-3.4668,-3.4712,-3.4722,-3.4726,-3.4764,-3.4762,-3.4805,-3.4803,-3.4868,-3.4861,-3.4861,-3.4858,-3.4901,-3.4896,-3.5045,-3.5064,-3.4938,-3.4939,-3.494,0,-3.456,-3.4598,-3.4619,-3.4641,-3.4653,-3.4689,-3.4711,-3.4705,-3.4728,-3.4755,-3.4784,-3.4821,-3.4849,-3.4911,-3.4918,-3.4951,-3.4942,-3.4993,-3.4947,-3.4948,-3.494,-3.4937,-3.494,-3.5,-3.5001,-3.5002,-3.5003,0,-3.4669,-3.4669,-3.47,-3.4733,-3.4759,-3.4784,-3.4807,-3.4826,-3.4823,-3.485,-3.4889,-3.4912,-3.4957,-3.4993,-3.5026,-3.5036,-3.5019,-3.5019,-3.503,-3.503,-3.5028,-3.5028,-3.4882,-3.5014,-3.5013,-3.5012,-3.5012,-3.5011,-3.4748,-3.478,-3.48,-3.4836,-3.4854,-3.4876,-3.4907,-3.4915,-3.4947,-3.4983,-3.4979,-3.5023,-3.5044,-3.5086,-3.51,-3.5134,-3.5116,-3.5133,-3.5137,-3.5141,-3.5145,-3.5026,-3.5141,-3.514,-3.514,-3.514,-3.514,0,-3.4853,-3.4866,-3.49,-3.4933,-3.4962,-3.4947,-3.4972,-3.4997,-3.5035,-3.5057,-3.5086,-3.5132,-3.5168,-3.5179,-3.5214,-3.5239,-3.5233,-3.5249,-3.5245,-3.5248,-3.5159,-3.5145,-3.5254,-3.5254,-3.5253,-3.5253,-3.5253,-3.5253,-3.4912,-3.4965,-3.4967,-3.503,-3.5042,-3.5085,-3.5101,-3.5122,-3.5139,-3.5191,-3.5221,-3.5229,-3.5247,-3.5283,-3.5316,-3.5318,-3.5331,-3.535,-3.5349,-3.5265,-3.5254,-3.5243,-3.5229,-3.5353,-3.5353,-3.5433,-3.5434,-3.5435]},{"header":{"parameterUnit":"m.s-1","parameterCategory":1,"la1":30.2991,"la2":30.254,"lo1":-89.0895,"lo2":-89.0444,"dy":0.0017,"dx":0.0017,"nx":28,"ny":28,"refTime":"2025-04-13T09:00:00:Z","depth":0,"parameterNumber":3,"parameterNumberName":"V-component_of_WINDS"},"data":[0,0,0,0,0,0,0,0,0,0,0,0,0,0,0,0,0,0,0,0,0,0,0,0,0,0,0,0,0,0,0,0,0,0,0,0,0,0,0,0,0,0,0,0,0,0,0,0,0,0,0,0,0,0,0,0,0,0,3.3599,3.36,0,3.3643,3.3644,3.3644,3.3698,3.3699,3.37,3.3701,3.3742,3.3742,3.3743,0,0,0,0,0,0,0,0,0,0,0,0,0,3.3559,3.3559,3.3599,3.36,3.36,3.3643,3.3644,3.3645,3.3698,3.3699,3.37,3.3701,3.3742,3.3742,3.3743,0,0,0,0,0,0,0,0,0,0,0,0,0,3.3587,3.3559,3.3599,3.3632,3.3636,3.3643,3.3644,3.3645,3.3698,3.3699,3.37,3.3702,3.3742,3.3742,3.3743,3.372,0,0,3.3744,3.3744,0,0,0,0,0,0,0,0,3.3585,3.3588,3.3627,3.363,3.3634,3.3667,3.3645,3.367,3.3698,3.3674,3.3701,3.3702,3.3716,3.3718,3.3724,3.3722,3.3724,3.3744,3.3744,3.3745,3.3745,0,0,0,0,0,0,0,3.3583,3.3586,3.3617,3.3627,3.3632,3.3644,3.365,3.365,3.3687,3.3676,3.368,3.3685,3.3718,3.3723,3.3725,3.3724,3.3744,3.3745,3.3745,3.3745,3.3707,3.3706,0,0,0,0,0,0,3.3577,3.3584,3.3615,3.3618,3.3612,3.3644,3.365,3.3655,3.3687,3.3693,3.3684,3.3687,3.3722,3.3724,3.3727,3.3703,3.3745,3.3745,3.3745,3.3709,3.3707,3.3706,0,0,0,0,0,0,3.3575,3.3579,3.3613,3.3602,3.3608,3.3643,3.3648,3.3655,3.3661,3.3693,3.37,3.3683,3.3723,3.3726,3.3722,3.3705,3.3745,3.3746,3.371,3.3708,3.3706,3.3655,0,0,0,0,0,0,3.3574,3.3578,3.357,3.3602,3.3608,3.3608,3.3647,3.3655,3.3662,3.3667,3.3694,3.3699,3.3724,3.3721,3.3722,3.3707,3.3746,3.3712,3.3709,3.3707,3.3658,3.3651,3.3646,0,0,0,0,0,3.3572,3.3553,3.3569,3.3573,3.3599,3.3607,3.3611,3.3641,3.366,3.3652,3.3673,3.3698,3.3707,3.372,3.3722,3.3706,3.3713,3.371,3.3707,3.3661,3.3653,3.3646,0,0,0,0,0,0,3.3516,3.3557,3.3576,3.3567,3.3583,3.3616,3.3607,3.3631,3.3641,3.3645,3.3681,3.3687,3.3678,3.3692,3.3706,3.3687,3.3714,3.3711,3.3678,3.367,3.3664,3.3661,3.3746,0,0,0,0,0,3.3503,3.3507,3.3542,3.353,3.3538,3.3571,3.3576,3.3598,3.3616,3.3623,3.3643,3.3659,3.3666,3.3669,3.3676,3.3661,3.3667,3.3651,3.3645,3.3639,3.3636,3.363,3.3623,3.3696,3.3696,3.3696,0,0,3.3475,3.3498,3.3498,3.352,3.3535,3.3538,3.3576,3.3577,3.358,3.3622,3.362,3.3636,3.3656,3.3646,3.3643,3.3657,3.3618,3.3636,3.3631,3.3631,3.3626,3.3619,3.3613,3.3694,3.3695,3.3695,0,0,3.3425,3.3443,3.3436,3.3451,3.3475,3.3498,3.3496,3.3526,3.3539,3.3537,3.357,3.3573,3.3583,3.3596,3.3604,3.3562,3.3585,3.3563,3.353,3.3523,3.3517,3.3513,3.3498,3.3492,3.356,3.356,3.356,0,3.3387,3.3394,3.3428,3.3428,3.3437,3.3478,3.347,3.3483,3.3507,3.3512,3.3528,3.3543,3.3559,3.3553,3.3543,3.3548,3.3547,3.356,3.3516,3.3511,3.3507,3.3493,3.3488,3.3557,3.3558,3.3558,3.3558,0,3.3346,3.335,3.3341,3.3365,3.3373,3.3369,3.3403,3.3406,3.3428,3.3449,3.3447,3.3468,3.3482,3.3482,3.3502,3.348,3.3488,3.3509,3.3537,3.3497,3.3484,3.3479,3.3553,3.3554,3.3555,3.3556,0,0,3.326,3.3306,3.3302,3.3314,3.3345,3.3348,3.3346,3.3361,3.3363,3.3379,3.3378,3.3386,3.3407,3.3416,3.3439,3.3433,3.3399,3.3455,3.3456,3.3444,3.3375,3.3359,3.3352,3.3415,3.3414,3.3414,3.3374,0,3.3216,3.3216,3.3249,3.324,3.3244,3.3284,3.3282,3.33,3.332,3.3326,3.3347,3.3353,3.338,3.3386,3.3382,3.3404,3.3385,3.3407,3.3414,3.3414,3.3407,3.3346,3.3328,3.3289,3.3369,3.3368,3.3368,0,3.3164,3.3179,3.3171,3.3204,3.3207,3.3205,3.3222,3.3227,3.3248,3.3263,3.3274,3.3301,3.3301,3.3328,3.3328,3.3342,3.3347,3.3358,3.3357,3.3358,3.3388,3.3345,3.3278,3.3272,3.336,3.3361,3.3362,0,3.3103,3.3121,3.3119,3.3129,3.3166,3.3164,3.3179,3.3202,3.3209,3.3223,3.3229,3.3242,3.3249,3.3259,3.3288,3.3305,3.3285,3.3314,3.3296,3.3295,3.329,3.3289,3.3222,3.3293,3.3293,3.3293,3.3293,0,3.305,3.3044,3.3093,3.3091,3.3085,3.3122,3.3115,3.3134,3.3155,3.3157,3.3192,3.3193,3.3232,3.3238,3.3261,3.3258,3.326,3.3272,3.3278,3.3269,3.3267,3.3272,3.3275,3.3292,3.3292,3.3292,3.3292,0,3.298,3.3013,3.3014,3.305,3.3059,3.3053,3.3084,3.3084,3.3106,3.3109,3.3112,3.3147,3.3156,3.3186,3.3202,3.3217,3.3207,3.3218,3.32,3.3204,3.3185,3.3186,3.3117,3.311,3.3185,3.3185,3.3184,0,3.2944,3.2941,3.2978,3.2983,3.2997,3.3005,3.3013,3.305,3.3057,3.3082,3.3079,3.3091,3.3102,3.3114,3.314,3.3152,3.3165,3.314,3.3166,3.3158,3.3164,3.3164,3.3164,3.3133,3.3133,3.3132,3.3131,0,3.2877,3.2894,3.2906,3.2923,3.2933,3.2948,3.2964,3.2966,3.3007,3.3013,3.3024,3.3033,3.305,3.3061,3.3078,3.3093,3.3118,3.3123,3.3119,3.311,3.3099,3.3105,3.3184,3.3124,3.3125,3.3125,3.3125,3.3126,3.2824,3.2823,3.2849,3.2861,3.2878,3.2894,3.2896,3.292,3.293,3.2948,3.2968,3.2976,3.2999,3.3025,3.3038,3.3044,3.3058,3.3053,3.3052,3.305,3.3045,3.3099,3.3047,3.3047,3.3047,3.3048,3.3048,0,3.2759,3.2778,3.2789,3.2813,3.2822,3.2848,3.2868,3.2874,3.2881,3.29,3.2912,3.2924,3.2936,3.2963,3.2978,3.2977,3.2989,3.298,3.298,3.2983,3.3032,3.3034,3.297,3.297,3.297,3.297,3.297,3.297,3.2726,3.2726,3.2746,3.2756,3.2775,3.2785,3.2794,3.2809,3.2825,3.2837,3.2848,3.2867,3.289,3.2906,3.2918,3.2926,3.2929,3.2915,3.2927,3.2972,3.2979,3.2986,3.2988,3.2916,3.2916,3.2878,3.2877,3.2877]}]]